Le nostre stazioni meteo in Italia

Pubblicità
Il mio iltempo24.it
Trapani/Birgi, Italia (16429): Temperatura & dewpoint: 09.10.2019 12:00:00 - 15.10.2019 12:00:00 (CEST)Trapani/Birgi, Italia (16429): velocità del vento: 09.10.2019 12:00:00 - 15.10.2019 12:00:00 (CEST)Trapani/Birgi, Italia (16429): direzione del vento: 09.10.2019 12:00:00 - 15.10.2019 12:00:00 (CEST)Trapani/Birgi, Italia (16429): reduced air pressure: 09.10.2019 12:00:00 - 15.10.2019 12:00:00 (CEST)Trapani/Birgi, Italia (16429): visibility: 09.10.2019 12:00:00 - 15.10.2019 12:00:00 (CEST)Trapani/Birgi, Italia (16429): ore di luce: 09.10.2019 12:00:00 - 15.10.2019 12:00:00 (CEST)
Data & Tempo tt [°C] td [°C] ff [km/h] ff [kn] dd ppp [hPa] vv [km] sd [min]
15.10.2019 12:00:00 26,0 21,9 35 19 S 1017,9 15 -
15.10.2019 11:00:00 26,0 22,3 31 17 SSE 1017,6 18 30
15.10.2019 10:00:00 24,4 21,3 31 17 SSE 1017,9 25 42
15.10.2019 09:00:00 21,0 18,4 37 20 SE 1017,9 15 30
15.10.2019 08:00:00 20,2 17,6 28 15 SE 1017,3 15 0
15.10.2019 07:00:00 20,6 17,8 26 14 SE 1017,3 12 -
15.10.2019 06:00:00 20,8 18,2 24 13 SE 1017,9 12 -
15.10.2019 05:00:00 20,8 18,2 22 12 SE 1017,3 12 -
15.10.2019 04:00:00 20,8 18,2 21 11 SE 1017,6 12 -
15.10.2019 03:00:00 21,0 18,4 22 12 SE 1017,9 12 -
15.10.2019 02:00:00 21,0 18,4 18 10 SE 1018,2 12 -
15.10.2019 01:00:00 21,0 18,4 16 9 SE 1018,9 12 -
15.10.2019 00:00:00 21,0 18,4 13 7 SE 1019,1 12 -
14.10.2019 23:00:00 21,2 18,6 16 9 ESE 1019,1 12 -
14.10.2019 22:00:00 21,8 19,5 16 9 ESE 1019,1 12 -
14.10.2019 21:00:00 22,0 19,9 13 7 ESE 1019,2 12 -
14.10.2019 20:00:00 22,2 20,5 21 11 SE 1019,1 15 -
14.10.2019 19:00:00 23,2 21,3 18 10 SE 1019,1 18 -
14.10.2019 18:00:00 25,0 22,1 28 15 SSE 1019,1 20 54
14.10.2019 17:00:00 26,4 21,8 26 14 SSE 1019,3 20 60
14.10.2019 16:00:00 27,0 21,3 22 12 SSE 1019,8 20 36
14.10.2019 15:00:00 26,4 20,5 26 14 SSE 1020,1 20 12
14.10.2019 14:00:00 26,2 20,8 24 13 SSE 1020,6 20 54
14.10.2019 13:00:00 27,2 20,0 24 13 SSE 1021,1 20 60
14.10.2019 12:00:00 26,8 20,6 24 13 SSE 1021,1 20 60
14.10.2019 11:00:00 25,0 19,6 24 13 SSE 1021,5 20 48
14.10.2019 10:00:00 23,8 19,1 22 12 ESE 1021,6 20 48
14.10.2019 09:00:00 21,0 18,4 16 9 ESE 1021,6 20 -
14.10.2019 08:00:00 18,0 15,4 4 2 ESE 1021,3 20 -
14.10.2019 07:00:00 18,2 15,6 5 3 E 1021,4 20 -
14.10.2019 06:00:00 18,8 16,2 4 2 E 1021,6 18 -
14.10.2019 05:00:00 19,0 16,6 8 4 ESE 1021,7 18 -
14.10.2019 04:00:00 19,0 16,6 8 4 E 1022,1 18 -
14.10.2019 03:00:00 19,2 16,8 8 4 ESE 1022,5 18 -
14.10.2019 02:00:00 19,8 17,4 9 5 E 1022,7 18 -
14.10.2019 01:00:00 19,8 17,4 5 3 E 1022,7 18 -
14.10.2019 00:00:00 20,0 17,6 4 2 E 1022,7 18 -
13.10.2019 23:00:00 20,2 17,6 5 3 E 1022,6 18 -
13.10.2019 22:00:00 20,6 18,2 4 2 NE 1022,3 18 -
13.10.2019 21:00:00 22,0 19,9 9 5 E 1022,3 18 -
13.10.2019 20:00:00 22,0 20,1 13 7 E 1022,2 20 -
13.10.2019 19:00:00 22,0 20,3 9 5 SE 1022,1 15 -
13.10.2019 18:00:00 23,6 21,5 21 11 S 1022,1 18 12
13.10.2019 17:00:00 25,0 20,3 22 12 S 1022,1 20 60
13.10.2019 16:00:00 26,2 20,3 21 11 SSO 1022,1 20 60
13.10.2019 15:00:00 27,2 20,3 24 13 S 1022,1 10 60
13.10.2019 14:00:00 27,2 20,8 21 11 SSE 1022,7 20 60
13.10.2019 13:00:00 27,0 20,8 16 9 S 1023,1 20 60
13.10.2019 12:00:00 27,0 20,6 16 9 SE 1023,2 18 60
13.10.2019 11:00:00 26,0 21,2 18 10 SE 1023,2 15 60
13.10.2019 10:00:00 23,8 20,7 18 10 SE 1023,2 15 12
13.10.2019 09:00:00 20,8 18,0 13 7 SE 1023,2 15 24
13.10.2019 08:00:00 18,8 16,0 11 6 ESE 1022,8 15 0
13.10.2019 07:00:00 18,0 15,2 9 5 SE 1022,6 12 -
13.10.2019 06:00:00 18,0 15,2 11 6 ESE 1022,5 12 -
13.10.2019 05:00:00 17,2 14,7 5 3 E 1023,1 12 -
13.10.2019 04:00:00 17,4 14,9 8 4 E 1023,1 12 -
13.10.2019 03:00:00 17,2 14,8 8 4 ESE 1023,2 12 -
13.10.2019 02:00:00 17,0 14,5 5 3 ENE 1023,6 12 -
13.10.2019 01:00:00 18,0 15,4 5 3 E 1023,3 12 -
13.10.2019 00:00:00 18,8 16,2 5 3 E 1023,3 12 -
12.10.2019 23:00:00 19,0 16,6 9 5 ESE 1023,4 12 -
12.10.2019 22:00:00 20,4 18,5 8 4 ESE 1023,3 14 -
12.10.2019 21:00:00 21,2 19,5 9 5 E 1023,2 14 -
12.10.2019 20:00:00 21,8 20,1 8 4 ESE 1023,1 16 -
12.10.2019 19:00:00 23,0 21,3 11 6 SSE 1022,9 20 12
12.10.2019 18:00:00 24,8 21,9 16 9 S 1022,5 20 60
12.10.2019 17:00:00 25,8 21,0 21 11 S 1023,0 20 60
12.10.2019 16:00:00 26,0 20,6 22 12 S 1023,0 20 60
12.10.2019 15:00:00 26,0 20,6 21 11 S 1023,1 20 54
12.10.2019 14:00:00 26,0 21,9 22 12 SSO 1023,4 20 48
12.10.2019 13:00:00 25,6 20,8 21 11 SSE 1023,9 20 42
12.10.2019 12:00:00 24,8 20,9 16 9 S 1023,9 20 36
12.10.2019 11:00:00 24,0 20,3 18 10 S 1023,8 20 30
12.10.2019 10:00:00 23,0 20,0 18 10 SSE 1023,2 18 54
12.10.2019 09:00:00 19,2 16,6 11 6 SE 1023,0 18 60
12.10.2019 08:00:00 17,2 14,7 4 2 SE 1022,8 18 0
12.10.2019 07:00:00 17,6 14,9 5 3 ESE 1022,1 15 -
12.10.2019 06:00:00 18,0 15,2 11 6 ESE 1022,1 12 -
12.10.2019 05:00:00 18,0 15,2 11 6 SE 1022,1 12 -
12.10.2019 04:00:00 16,4 13,9 8 4 ESE 1022,2 12 -
12.10.2019 03:00:00 16,0 13,5 4 2 ESE 1022,3 12 -
12.10.2019 02:00:00 16,0 13,5 5 3 NNE 1022,3 12 -
12.10.2019 01:00:00 17,0 14,5 4 2 N 1022,1 12 -
12.10.2019 00:00:00 17,4 15,2 8 4 N 1021,9 12 -
11.10.2019 23:00:00 18,0 16,0 5 3 NNE 1021,7 12 -
11.10.2019 22:00:00 18,8 17,1 4 2 N 1021,2 12 -
11.10.2019 21:00:00 20,2 18,5 4 2 NE 1021,1 12 -
11.10.2019 20:00:00 21,0 19,3 5 3 N 1020,8 12 -
11.10.2019 19:00:00 23,0 20,9 13 7 N 1020,6 20 24
11.10.2019 18:00:00 25,0 19,8 15 8 N 1020,4 22 60
11.10.2019 17:00:00 25,2 20,2 21 11 N 1020,5 22 60
11.10.2019 16:00:00 25,8 18,0 16 9 NNO 1020,6 22 60
11.10.2019 15:00:00 25,4 19,3 21 11 NNO 1020,9 22 60
11.10.2019 14:00:00 25,0 19,4 21 11 NNO 1021,1 22 60
11.10.2019 13:00:00 25,0 18,7 18 10 NNO 1021,6 22 60
11.10.2019 12:00:00 24,2 19,1 15 8 NNO 1021,9 25 -
11.10.2019 11:00:00 24,0 19,3 - - NO 1021,6 25 60
11.10.2019 10:00:00 22,4 19,2 4 2 N 1021,3 25 30
11.10.2019 09:00:00 17,6 14,7 4 2 N 1020,8 25 42
11.10.2019 08:00:00 15,0 12,3 8 4 ESE 1020,0 16 -
11.10.2019 07:00:00 14,8 12,3 4 2 ENE 1020,0 16 -
11.10.2019 06:00:00 15,0 12,5 4 2 N 1019,5 14 -
11.10.2019 05:00:00 15,8 13,3 4 2 E 1019,3 14 -
11.10.2019 04:00:00 15,8 13,3 5 3 ESE 1019,3 14 -
11.10.2019 03:00:00 16,0 13,5 4 2 ESE 1019,3 14 -
11.10.2019 02:00:00 17,0 14,5 4 2 N 1019,2 16 -
11.10.2019 01:00:00 17,4 14,9 4 2 N 1019,2 16 -
11.10.2019 00:00:00 18,0 15,6 4 2 N 1019,2 16 -
10.10.2019 23:00:00 20,0 17,8 4 2 N 1019,1 16 -
10.10.2019 22:00:00 21,0 18,8 8 4 N 1018,8 16 -
10.10.2019 21:00:00 21,4 19,3 11 6 N 1018,1 18 -
10.10.2019 20:00:00 22,0 20,3 11 6 N 1017,4 18 -
10.10.2019 19:00:00 22,0 20,3 13 7 NNO 1017,1 18 12
10.10.2019 18:00:00 23,6 21,5 16 9 NNO 1017,2 20 60
10.10.2019 17:00:00 23,8 21,7 21 11 NNO 1017,1 20 60
10.10.2019 16:00:00 24,0 21,9 22 12 NNO 1017,1 25 48
10.10.2019 15:00:00 24,0 21,9 21 11 ONO 1016,7 25 60
10.10.2019 14:00:00 24,0 21,9 22 12 NNO 1016,9 25 60
10.10.2019 13:00:00 24,2 22,1 22 12 NNO 1017,1 15 60
10.10.2019 12:00:00 25,0 21,9 18 10 NNO 1017,1 25 60
10.10.2019 11:00:00 24,0 21,3 22 12 N 1017,4 25 60
10.10.2019 10:00:00 23,4 20,7 22 12 N 1017,1 25 24
10.10.2019 09:00:00 21,0 18,4 21 11 N 1016,9 15 24
10.10.2019 08:00:00 18,0 15,4 5 3 E 1016,3 15 0
10.10.2019 07:00:00 17,2 14,7 4 2 - 1016,1 10 -
10.10.2019 06:00:00 17,0 14,3 4 2 ESE 1016,1 12 -
10.10.2019 05:00:00 17,2 14,5 5 3 E 1016,1 12 -
10.10.2019 04:00:00 17,0 14,5 8 4 E 1016,3 12 -
10.10.2019 03:00:00 17,2 14,7 4 2 E 1016,5 12 -
10.10.2019 02:00:00 17,4 15,0 0 0 N 1016,6 12 -
10.10.2019 01:00:00 18,8 16,2 4 2 N 1017,1 12 -
10.10.2019 00:00:00 19,0 16,4 5 3 E 1016,6 12 -
09.10.2019 23:00:00 21,0 18,6 4 2 N 1016,6 12 -
09.10.2019 22:00:00 21,2 19,3 8 4 NE 1016,5 12 -
09.10.2019 21:00:00 22,0 20,1 5 3 N 1016,3 10 -
09.10.2019 20:00:00 22,6 20,7 9 5 S 1016,4 12 -
09.10.2019 19:00:00 24,0 22,1 15 8 N 1016,0 18 12
09.10.2019 18:00:00 25,0 22,3 13 7 N 1015,9 20 60
09.10.2019 17:00:00 25,4 20,0 18 10 N 1016,1 20 18
09.10.2019 16:00:00 25,6 20,4 16 9 N 1016,4 20 54
09.10.2019 15:00:00 26,0 18,9 18 10 NNO 1017,0 20 60
09.10.2019 14:00:00 25,0 20,0 15 8 NNO 1017,2 20 60
09.10.2019 13:00:00 25,0 20,7 18 10 O 1018,1 20 48
09.10.2019 12:00:00 24,8 20,9 11 6 NO 1018,3 20 60

tt = Temperatura
td = dewpoint
ff = velocità del vento
dd = direzione del vento
ppp = reduced air pressure
vv = visibility
sd = ore di luce

Stazioni seguenti

WeatherPro
AMSI
MeteoEarth